Simultaneous Nadir Overpasses (SNOs) Predictions

Prediction of SNOs between GOES-16 and AQUA Satellite Orbit:

Table of predicted SNOs for the next 14.0 days since TLE Epoch: 3/18/2023
Index Date Time (GOES-16) GOES-16 Lat,Lon AQUA Lat,Lon Distance(km) Time Diff (sec)
1 03/19/2023 18:35:50 0.06, -75.22 0.54, -72.86 266.94 80
2 03/20/2023 06:59:23 -0.06, -75.22 0.55, -77.92 308.38 80
3 03/22/2023 06:43:07 -0.06, -75.24 -0.22, -74.61 71.55 80
4 03/24/2023 06:29:29 -0.06, -75.26 -0.91, -71.29 452.35 80
5 03/24/2023 18:53:11 0.05, -75.28 -0.17, -76.38 125.73 80
6 03/26/2023 18:36:52 0.05, -75.31 0.54, -73.06 256.24 80
7 03/27/2023 07:00:23 -0.05, -75.31 0.57, -78.11 318.08 80
8 03/29/2023 06:44:04 -0.05, -75.35 -0.14, -74.77 65.00 80
9 03/31/2023 06:30:24 -0.04, -75.39 -0.91, -71.45 448.98 80
10 03/31/2023 18:54:03 0.03, -75.41 -0.23, -76.53 128.39 80
